DW9924 Weather Reports


Display with metric or nautical units.
time (UTC)temp
F
wind
direction
speed
MPH
gust
MPH
rain 1hr
in
rain 24hr
in
rain mn
in
humidity
%
barometer
mb
20260905141904 84 232 5.0 6.0 0.00 0.00 0.00 69 1018.6
20260905141413 86 219 3.0 7.0 0.00 0.00 0.00 67 1018.6
20260905140905 86 260 1.0 5.0 0.00 0.00 0.00 68 1018.6
20260905140405 86 171 1.0 3.0 0.00 0.00 0.00 68 1018.5
20260905134912 86 230 2.0 5.0 0.00 0.00 0.00 68 1018.7
20260905133912 86 184 3.0 7.0 0.00 0.00 0.00 68 1018.7
20260905133404 87 179 1.0 5.0 0.00 0.00 0.00 67 1018.7
20260905131404 86 212 2.0 5.0 0.00 0.00 0.00 67 1018.8
20260905130407 86 285 1.0 3.0 0.00 0.00 0.00 68 1018.8
20260905124904 85 183 2.0 5.0 0.00 0.00 0.00 69 1019.0
20260905124404 85 180 2.0 6.0 0.00 0.00 0.00 69 1019.0
20260905123905 86 188 1.0 5.0 0.00 0.00 0.00 69 1019.0
20260905123404 86 187 2.0 6.0 0.00 0.00 0.00 68 1019.2
20260905120905 86 203 1.0 6.0 0.00 0.00 0.00 68 1019.3
20260905120404 87 173 1.0 5.0 0.00 0.00 0.00 69 1019.3
20260905114905 85 193 2.0 5.0 0.00 0.00 0.00 70 1019.3
20260905114405 85 141 1.0 6.0 0.00 0.00 0.00 71 1019.3
20260905111404 85 191 1.0 5.0 0.00 0.00 0.00 70 1019.2
20260905110907 86 162 2.0 5.0 0.00 0.00 0.00 70 1019.3
20260905110404 85 200 1.0 7.0 0.00 0.00 0.00 70 1019.3
20260905104904 86 186 1.0 3.0 0.00 0.00 0.00 69 1019.3
20260905104404 85 115 2.0 3.0 0.00 0.00 0.00 68 1019.3
20260905103904 85 171 2.0 3.0 0.00 0.00 0.00 68 1019.3
20260905103407 85 118 2.0 5.0 0.00 0.00 0.00 69 1019.2
20260905101420 85 224 1.0 3.0 0.00 0.00 0.00 68 1019.3
20260905100908 85 177 1.0 3.0 0.00 0.00 0.00 69 1019.3
20260905094904 84 215 1.0 3.0 0.00 0.00 0.00 70 1019.3
20260905094404 84 259 0.0 3.0 0.00 0.00 0.00 72 1019.2
20260905093904 84 157 1.0 5.0 0.00 0.00 0.00 72 1019.3
20260905093407 83 171 1.0 7.0 0.00 0.00 0.00 72 1019.1
20260905091907 82 159 3.0 6.0 0.00 0.00 0.00 71 1019.1
20260905090906 82 164 2.0 6.0 0.00 0.00 0.00 73 1019.1
20260905090407 82 153 2.0 6.0 0.00 0.00 0.00 71 1019.0
20260905084410 81 166 1.0 3.0 0.00 0.00 0.00 73 1018.9
20260905083907 81 154 1.0 5.0 0.00 0.00 0.00 72 1019.0
20260905081406 80 185 1.0 3.0 0.00 0.00 0.00 75 1018.7
20260905080906 80 136 1.0 3.0 0.00 0.00 0.00 75 1018.8
20260905074906 79 185 0.0 1.0 0.00 0.00 0.00 78 1018.7
20260905074407 79 185 0.0 1.0 0.00 0.00 0.00 78 1018.7
20260905073906 79 185 0.0 2.0 0.00 0.00 0.00 78 1018.7
20260905073407 79 185 0.0 1.0 0.00 0.00 0.00 78 1018.7
20260905071407 78 192 0.0 1.0 0.00 0.00 0.00 78 1018.5
20260905070406 78 136 1.0 3.0 0.00 0.00 0.00 79 1018.5
20260905064906 77 197 0.0 1.0 0.00 0.00 0.00 81 1018.5
20260905064407 77 338 0.0 0.0 0.00 0.00 0.00 82 1018.6
20260905063906 76 338 0.0 0.0 0.00 0.00 0.00 82 1018.6
20260905063407 76 338 0.0 1.0 0.00 0.00 0.00 82 1018.4
20260905061906 76 338 0.0 0.0 0.00 0.00 0.00 83 1018.4
20260905061406 75 338 0.0 1.0 0.00 0.00 0.00 82 1018.4
20260905060907 75 33 0.0 1.0 0.00 0.00 0.00 82 1018.4
20260905060406 75 126 0.0 2.0 0.00 0.00 0.00 83 1018.3
20260905054906 75 78 0.0 2.0 0.00 0.00 0.00 82 1018.3
20260905054407 75 74 0.0 1.0 0.00 0.00 0.00 82 1018.3
20260905053406 75 58 0.0 2.0 0.00 0.00 0.00 83 1018.2
20260905051407 75 42 0.0 2.0 0.00 0.00 0.00 83 1018.0
20260905050406 75 86 1.0 2.0 0.00 0.00 0.00 82 1017.9
20260905044907 75 31 2.0 3.0 0.00 0.00 0.00 82 1017.8
20260905044407 75 5 1.0 3.0 0.00 0.00 0.00 83 1017.8
20260905043906 75 16 0.0 2.0 0.00 0.00 0.00 83 1017.9
20260905043406 74 103 0.0 3.0 0.00 0.00 0.00 82 1017.6
20260905041906 75 1 1.0 3.0 0.00 0.00 0.00 83 1017.8
20260905041407 74 6 1.0 3.0 0.00 0.00 0.00 83 1017.8
20260905040907 74 33 0.0 3.0 0.00 0.00 0.00 83 1017.8
20260905040407 74 45 1.0 5.0 0.00 0.00 0.00 83 1017.7
20260905034906 74 6 1.0 3.0 0.00 0.00 0.00 83 1017.9
20260905034407 74 14 2.0 3.0 0.00 0.00 0.00 83 1017.9
20260905033906 74 34 1.0 2.0 0.00 0.00 0.00 83 1017.8
20260905033406 74 37 1.0 3.0 0.00 0.00 0.00 83 1017.8
20260905031906 74 11 1.0 2.0 0.00 0.00 0.00 83 1018.0
20260905031406 74 44 1.0 3.0 0.00 0.00 0.00 83 1018.0
20260905030906 74 39 1.0 3.0 0.00 0.00 0.00 83 1018.0
20260905030407 74 28 1.0 3.0 0.00 0.00 0.00 83 1017.9
20260905024906 74 39 2.0 3.0 0.00 0.00 0.00 82 1018.0
20260905024406 74 38 2.0 3.0 0.00 0.00 0.00 82 1018.0
20260905023906 74 45 2.0 3.0 0.00 0.00 0.00 82 1018.1
20260905021906 74 43 2.0 3.0 0.00 0.00 0.00 82 1018.3
20260905021406 74 38 2.0 3.0 0.00 0.00 0.00 82 1018.3
20260905020906 74 39 2.0 3.0 0.00 0.00 0.00 82 1018.3
20260905020406 74 32 2.0 3.0 0.00 0.00 0.00 82 1018.3
20260905014906 73 34 2.0 3.0 0.00 0.00 0.00 83 1018.4
20260905014406 73 37 2.0 3.0 0.00 0.00 0.00 83 1018.3
20260905013906 74 30 2.0 3.0 0.00 0.00 0.00 84 1018.4
20260905013406 74 35 2.0 3.0 0.00 0.00 0.00 84 1018.4
20260905011906 74 26 1.0 3.0 0.00 0.00 0.00 84 1018.3
20260905011406 74 15 1.0 3.0 0.00 0.00 0.00 84 1018.4
20260905010906 74 27 1.0 3.0 0.00 0.00 0.00 84 1018.3
20260905010406 74 29 2.0 3.0 0.00 0.00 0.00 84 1018.3
20260905004906 74 24 1.0 3.0 0.00 0.00 0.00 84 1018.2
20260905004406 74 47 1.0 3.0 0.00 0.00 0.00 84 1018.1
20260905003406 74 38 2.0 3.0 0.00 0.00 0.00 84 1018.4
20260905001906 74 26 2.0 3.0 0.00 0.00 0.00 84 1018.5
20260905001406 74 29 2.0 3.0 0.00 0.00 0.00 83 1018.5
20260905000906 74 20 2.0 3.0 0.00 0.00 0.00 83 1018.5
20260904234906 74 8 2.0 3.0 0.00 0.00 0.00 83 1018.7
20260904234406 74 22 2.0 3.0 0.00 0.00 0.00 83 1018.7
20260904233907 74 2 1.0 3.0 0.00 0.00 0.00 83 1018.8
20260904233406 74 7 2.0 3.0 0.00 0.00 0.00 83 1018.7
20260904231905 74 11 1.0 2.0 0.00 0.00 0.00 83 1018.8
20260904231408 74 7 1.0 2.0 0.00 0.00 0.00 83 1018.8
20260904230405 74 25 2.0 3.0 0.00 0.00 0.00 83 1018.7
20260904224906 74 28 2.0 3.0 0.00 0.00 0.00 83 1018.9
20260904223905 75 28 2.0 3.0 0.00 0.00 0.00 83 1019.0
20260904223408 75 29 2.0 3.0 0.00 0.00 0.00 83 1018.9
20260904221905 75 38 2.0 3.0 0.00 0.00 0.00 83 1018.7
20260904221405 75 34 2.0 3.0 0.00 0.00 0.00 83 1018.7
20260904220906 75 40 2.0 3.0 0.00 0.00 0.00 83 1018.7
20260904220406 75 35 2.0 3.0 0.00 0.00 0.00 82 1018.8
20260904214906 75 35 1.0 2.0 0.00 0.00 0.00 81 1019.0
20260904214406 75 30 1.0 3.0 0.00 0.00 0.00 81 1019.0
20260904213905 75 32 1.0 3.0 0.00 0.00 0.00 81 1019.0
20260904213405 75 25 2.0 3.0 0.00 0.00 0.00 80 1019.0
20260904211907 75 23 1.0 3.0 0.00 0.00 0.00 81 1019.0
20260904211405 75 25 2.0 3.0 0.00 0.00 0.00 81 1018.9
20260904204905 75 36 2.0 3.0 0.00 0.00 0.00 80 1019.1
20260904204405 75 38 2.0 3.0 0.00 0.00 0.00 80 1019.1
20260904203906 75 37 2.0 3.0 0.00 0.00 0.00 80 1019.2
20260904201905 76 24 2.0 3.0 0.00 0.00 0.00 77 1019.3
20260904201405 76 38 2.0 3.0 0.00 0.00 0.00 76 1019.3
20260904200906 76 31 2.0 3.0 0.00 0.00 0.00 76 1019.4
20260904200406 76 33 2.0 3.0 0.00 0.00 0.00 75 1019.3
20260904194906 76 30 2.0 2.0 0.00 0.00 0.00 77 1019.2
20260904194408 76 35 1.0 3.0 0.00 0.00 0.00 77 1019.2
20260904193906 76 44 1.0 2.0 0.00 0.00 0.00 77 1019.1
20260904193405 76 44 1.0 3.0 0.00 0.00 0.00 77 1019.2
20260904191905 77 46 2.0 3.0 0.00 0.00 0.00 76 1019.1
20260904191405 77 36 1.0 2.0 0.00 0.00 0.00 76 1019.2
20260904190906 77 33 1.0 3.0 0.00 0.00 0.00 76 1019.1
20260904190407 77 36 1.0 3.0 0.00 0.00 0.00 76 1019.0
20260904184905 77 39 2.0 3.0 0.00 0.00 0.00 75 1018.8
20260904183905 78 35 2.0 3.0 0.00 0.00 0.00 74 1018.8
20260904183405 78 18 2.0 2.0 0.00 0.00 0.00 74 1018.7
20260904181905 79 16 1.0 2.0 0.00 0.00 0.00 72 1018.7
20260904181405 79 46 2.0 2.0 0.00 0.00 0.00 72 1018.7
20260904180906 80 37 1.0 3.0 0.00 0.00 0.00 72 1018.6
20260904180405 80 48 1.0 2.0 0.00 0.00 0.00 71 1018.7
20260904174905 80 118 0.0 0.0 0.00 0.00 0.00 70 1018.5
20260904174405 80 118 0.0 1.0 0.00 0.00 0.00 70 1018.6
20260904173905 80 219 0.0 2.0 0.00 0.00 0.00 70 1018.6
20260904173405 81 219 0.0 2.0 0.00 0.00 0.00 70 1018.6
20260904171905 81 219 0.0 1.0 0.00 0.00 0.00 70 1018.6
20260904171405 81 219 0.0 0.0 0.00 0.00 0.00 70 1018.7
20260904170905 81 219 0.0 1.0 0.00 0.00 0.00 69 1018.7
20260904170406 82 219 0.0 3.0 0.00 0.00 0.00 70 1018.7
20260904164906 82 221 1.0 2.0 0.00 0.00 0.00 67 1018.9
20260904163905 82 250 0.0 3.0 0.00 0.00 0.00 69 1018.9
20260904161405 82 222 1.0 3.0 0.00 0.00 0.00 67 1018.9
20260904160905 82 223 2.0 3.0 0.00 0.00 0.00 68 1019.0
20260904160405 83 179 1.0 3.0 0.00 0.00 0.00 69 1019.0
20260904154904 83 226 1.0 3.0 0.00 0.00 0.00 71 1019.1
20260904154406 83 225 1.0 3.0 0.00 0.00 0.00 72 1019.1
20260904153905 83 232 2.0 5.0 0.00 0.00 0.00 71 1019.1
20260904153405 84 223 1.0 6.0 0.00 0.00 0.00 71 1019.1
20260904151406 84 161 1.0 3.0 0.00 0.00 0.00 71 1019.1
20260904150905 84 178 2.0 3.0 0.00 0.00 0.00 72 1019.2
20260904150407 84 149 1.0 3.0 0.00 0.00 0.00 72 1019.2
20260904144905 85 171 1.0 3.0 0.00 0.00 0.00 69 1019.4
20260904144404 85 187 1.0 3.0 0.00 0.00 0.00 71 1019.4
20260904143905 85 153 1.0 3.0 0.00 0.00 0.00 70 1019.5
20260904143405 84 132 1.0 3.0 0.00 0.00 0.00 71 1019.5